Weather History for Russellville, AR

Change the Weather History Date:

Wednesday, June 26, 2013

  Actual Average (KHOT) Record (KHOT)
Temperature  
Mean Temperature 85 °F -  
Max Temperature 97 °F 91 °F 101 °F (1954)
Min Temperature 73 °F 68 °F 53 °F (1958)
Cooling Degree Days 20    
Growing Degree Days 35 (Base 50)    
Moisture  
Dew Point 72 °F    
Average Humidity 66    
Maximum Humidity 91    
Minimum Humidity 46    
Precipitation  
Precipitation 0.00 in - - ()
Sea Level Pressure  
Sea Level Pressure 29.88 in    
Wind  
Wind Speed 2 mph (SW)    
Max Wind Speed 9 mph    
Max Gust Speed 17 mph    
Visibility 10 miles    
Events      
Averages and records for this station are not official NWS values.
T = Trace of Precipitation, MM = Missing Value Source: NWS Daily Summary

Daily Weather History Graph

Daily Weather History Graph

Search for Another Location

Airport:

Trip Planner

Search our weather history database for the weather conditions in past years. The results will help you decide how hot, cold, wet, or windy it might be!

Date:

Astronomy

Jun. 26, 2013 Rise Set
Actual Time 5:59 AM CDT 8:31 PM CDT
Civil Twilight 5:29 AM CDT 9:00 PM CDT
Nautical Twilight 4:52 AM CDT 9:37 PM CDT
Astronomical Twilight 4:11 AM CDT 10:18 PM CDT
Moon 11:04 PM CDT (6/26) 9:43 AM CDT (6/26)
Length of Visible Light 15h 31m
Length of Day
14h 31m
Waning Gibbous, 85% of the Moon is Illuminated
Jun 26
Waning Gibbous
Jun 29
Last Quarter
Jul 8
New
Jul 15
First Quarter
Jul 22
Full

Hourly Weather History & Observations

Time (CDT) Temp. Heat Index Dew Point Humidity Pressure Visibility Wind Dir Wind Speed Gust Speed Precip Events Conditions
12:53 AM 75.9 °F - 71.1 °F 85% 29.89 in 10.0 mi Calm Calm - N/A   Clear
1:53 AM 75.0 °F - 71.1 °F 87% 29.88 in 10.0 mi Calm Calm - N/A   Clear
2:53 AM 75.0 °F - 71.1 °F 87% 29.86 in 10.0 mi Calm Calm - N/A   Clear
3:53 AM 73.9 °F - 71.1 °F 91% 29.86 in 10.0 mi Calm Calm - N/A   Clear
4:53 AM 73.9 °F - 70.0 °F 87% 29.87 in 10.0 mi Calm Calm - N/A   Clear
5:53 AM 73.0 °F - 70.0 °F 90% 29.89 in 10.0 mi Calm Calm - N/A   Clear
6:53 AM 75.9 °F - 72.0 °F 87% 29.91 in 10.0 mi Calm Calm - N/A   Clear
7:53 AM 81.0 °F 85.8 °F 73.0 °F 77% 29.92 in 10.0 mi Calm Calm - N/A   Clear
8:53 AM 84.0 °F 90.2 °F 73.0 °F 69% 29.93 in 10.0 mi Variable 5.8 mph - N/A   Clear
9:53 AM 86.0 °F 90.1 °F 69.1 °F 57% 29.92 in 10.0 mi SW 8.1 mph - N/A   Clear
10:53 AM 88.0 °F 92.9 °F 70.0 °F 55% 29.92 in 8.0 mi Variable 6.9 mph 17.3 mph N/A   Clear
11:53 AM 91.0 °F 97.6 °F 71.1 °F 52% 29.91 in 10.0 mi Variable 5.8 mph - N/A   Clear
12:53 PM 93.0 °F 100.7 °F 72.0 °F 50% 29.90 in 10.0 mi SW 8.1 mph - N/A   Clear
1:53 PM 93.9 °F 102.1 °F 72.0 °F 49% 29.89 in 10.0 mi SW 9.2 mph - N/A   Scattered Clouds
2:53 PM 93.9 °F 102.1 °F 72.0 °F 49% 29.87 in 10.0 mi SW 8.1 mph - N/A   Partly Cloudy
3:53 PM 97.0 °F 107.0 °F 73.0 °F 46% 29.85 in 10.0 mi Variable 6.9 mph - N/A   Clear
4:53 PM 96.1 °F 104.9 °F 72.0 °F 46% 29.84 in 10.0 mi SSW 8.1 mph - N/A   Clear
5:53 PM 95.0 °F 103.2 °F 72.0 °F 47% 29.83 in 10.0 mi Variable 5.8 mph - N/A   Clear
6:53 PM 93.9 °F 103.4 °F 73.0 °F 51% 29.83 in 10.0 mi SW 4.6 mph - N/A   Clear
7:53 PM 89.1 °F 97.0 °F 73.0 °F 59% 29.85 in 10.0 mi Calm Calm - N/A   Clear
8:53 PM 86.0 °F 93.0 °F 73.0 °F 65% 29.86 in 10.0 mi SW 3.5 mph - N/A   Clear
9:53 PM 86.0 °F 93.0 °F 73.0 °F 65% 29.87 in 10.0 mi Calm Calm - N/A   Clear
10:53 PM 84.0 °F 90.2 °F 73.0 °F 69% 29.88 in 10.0 mi Calm Calm - N/A   Clear
11:53 PM 82.0 °F 87.4 °F 73.0 °F 74% 29.90 in 10.0 mi Calm Calm - N/A   Clear